Погода в Силхете

Бангладеш     24°53′47″N   91°52′36″E
темп.,
°C
ветер,
м/с
пор.,
м/с
влажн.,
%
обл.,
%
осадки,
мм/ч
давл.,
гПа
погр.,
м
14 апреля, ср
ср1400:00+26ююв33365 0.0 100938
03:00+23всв22440 0.0 100916
06:00+22вюв22490 0.0 101135
09:00+29вюв21400 0.0 1013616
12:00+35зюз13370 0.1 10101515
15:00+38з58220 0.0 10062791
18:00+33сз22261 0.0 100511
21:00+29св33330 0.0 100735
15 апреля, чт
чт1500:00+27з223683 0.0 100816
03:00+26вюв114047 0.0 100812
06:00+24вюв22595 0.0 100950
09:00+31юв2251100 0.0 1011958
12:00+36зюз3531100 0.0 10082310
15:00+38зсз4724100 0.0 10033135
18:00+32вюв4531100 0.1 1003277
21:00+28ссз2242100 0.1 100745
16 апреля, пт
пт1600:00+27св2249100 0.9 100616
03:00+25всв1257100 0.0 100726
06:00+24всв236637 0.0 100960
09:00+31ююв12555 0.0 10111084
12:00+36з24358 0.0 10082154
15:00+39з672326 0.0 10032896
18:00+35зюз582739 0.1 1002235
21:00+25всв455978 1.2 101090
17 апреля, сб
сб1700:00+24ссв3666100 1.2 1009107
03:00+24ю1170100 0.0 100824
06:00+24ю1166100 0.0 101134
09:00+30ююв22452 0.0 1012918
12:00+36ююз33330 0.0 10092044
15:00+38зюз47240 0.0 10042938
18:00+35с222899 0.0 100316
21:00+29в464436 0.4 1008164
18 апреля, вс
вс1800:00+23св6984100 5.6 1010258
03:00+22вюв14880 3.3 1010191
06:00+22в12854 4.3 101287
09:00+25вюв336699 1.4 1013395
12:00+32в11547 2.4 1010995
15:00+34с11430 0.1 10021362
18:00+22юв2285100 5.1 1005241
21:00+22св2385100 2.2 1013187